Preview of NWS' New Version of Forecast
This preview is not operational and should not be used for support decisions.

Regional Weather Roundup (RWR)

Issued by National Weather Service (NWS)

                            
000
ASUS45 KCYS 242110
RWRWY 

WYOMING REGIONAL WEATHER ROUNDUP
NATIONAL WEATHER SERVICE CHEYENNE WY
300 PM MDT SAT AUG 24 2019

NOTE:  "FAIR" INDICATES FEW OR NO CLOUDS BELOW 12,000 FEET
WITH NO SIGNIFICANT WEATHER AND/OR OBSTRUCTIONS TO VISIBILITY.

WYZ001-242200-
...YELLOWSTONE NATIONAL PARK...
  
CITY           SKY/WX    TMP DP  RH WIND       PRES   REMARKS
LK YELLOWSTONE   N/A     71  31  22 VRB5      30.19F                  
W YELLOWSTONE  NOT AVBL                                               

$$
WYZ002>013-054>058-071-098>099-242200-
...NORTHERN WYOMING...
  
CITY           SKY/WX    TMP DP  RH WIND       PRES   REMARKS
JACKSON        MOSUNNY   78  34  20 W13G21    30.11F                  
CODY           PTSUNNY   78  48  34 NE14      29.96F                  
GREYBULL       PTSUNNY   85  43  22 SW3       29.89F                  
WORLAND        CLOUDY    85  42  22 NE7       29.91F                  
SHERIDAN       PTSUNNY   83  49  30 E3        29.90S                  
BUFFALO        MOSUNNY   80  46  30 N7G17       N/A                   
GILLETTE       SUNNY     81  51  35 N7        29.92F                  
HULETT         FAIR      77  55  47 W6        29.94S                  
NEWCASTLE      FAIR      77  50  38 CALM      29.94F                  

$$
WYZ014>020-022>026-101>103-242200-
...CENTRAL WYOMING...
  
CITY           SKY/WX    TMP DP  RH WIND       PRES   REMARKS
BIG PINEY      SUNNY     80  31  16 VRB7      30.16F                  
PINEDALE       SUNNY     79  27  14 W9G25     30.17F                  
DUBOIS         FAIR      77  27  15 NW17G26   30.11F                  
LANDER         SUNNY     84  40  21 N7        30.00F                  
RIVERTON       MOSUNNY   81  40  23 VRB3      30.00F                  
CASPER         SUNNY     84  34  16 SW12G21   29.99F                  
DOUGLAS        SUNNY     84  43  23 W14G23    29.97F                  

$$
WYZ021-027>030-104>119-242200-
...SOUTHERN WYOMING...
  
CITY           SKY/WX    TMP DP  RH WIND       PRES   REMARKS
EVANSTON       SUNNY     80  29  15 W17G28    30.21F                  
KEMMERER       SUNNY     79  27  14 W20G29    30.20S                  
FORT BRIDGER   NOT AVBL                                               
ROCK SPRINGS   SUNNY     82  30  15 W15G33    30.13F                  
DIXON          FAIR      79  25  13 S10       30.16F                  
RAWLINS        SUNNY     82  29  14 W24G33    30.12F                  
SARATOGA       FAIR      81  30  16 W22G28    30.16F                  
LARAMIE        SUNNY     78  27  15 NW21G31   30.14S                  
CHEYENNE       SUNNY     82  33  17 NW20G26   30.05F                  
TORRINGTON     SUNNY     81  56  42 S7        29.93F                  
PINE BLUFFS    FAIR      79  46  31 N9G20     30.01F                  

$$